Wind_Speed
25 26 27 26 25 22 21 20 19 18 19 18 17 16 17 16 15 13 11 8 9 11 8 9 10 11 10 11 12 13 16 17 17 16 15 15 15 15 15 15 15 15 14
26 28 27 26 25 23 22 19 19 20 21 20 21 20 18 17 14 11 11 9 6 7 7 9 11 12 12 13 13 14 15 15 15 14 14 14 15 16 16 15 16 17 18
28 29 28 27 25 23 20 21 23 24 24 23 19 18 15 15 17 19 17 15 12 8 4 12 13 11 11 15 16 16 16 15 13 12 11 12 13 12 12 12 10 10 10
29 29 29 27 26 24 24 26 27 27 23 18 18 17 16 18 19 19 19 23 18 15 16 21 14 8 18 18 18 17 15 15 14 13 13 11 10 9 7 8 8 7 6
30 29 29 28 28 28 29 29 27 23 21 20 19 19 20 21 20 21 22 22 22 24 21 21 30 32 25 23 20 15 13 12 10 7 6 6 6 4 3 4 5 6 8
32 31 30 29 30 30 30 29 26 24 21 20 19 21 23 21 19 18 19 17 18 19 17 15 19 25 24 18 15 12 9 7 6 4 4 5 7 9 9 8 6 6 7
33 31 30 31 31 30 29 27 25 23 22 18 18 22 22 19 18 18 17 15 13 14 12 8 8 8 7 8 7 6 3 2 3 6 9 9 11 12 12 11 9 7 8
34 33 32 32 32 32 29 27 26 26 22 23 21 23 15 15 14 14 13 14 12 11 10 9 8 9 12 9 7 4 2 6 9 11 11 12 14 16 15 13 11 9 7
36 34 32 31 31 30 29 29 28 24 25 24 24 14 10 7 18 14 13 13 12 11 10 11 10 8 6 6 5 2 2 4 6 8 10 14 17 18 17 18 17 15 12
38 36 33 31 29 29 29 29 28 25 24 24 25 16 13 12 14 12 14 14 13 12 11 11 12 10 9 8 6 4 3 4 6 5 6 10 13 15 17 18 11 12 12
41 39 36 34 32 30 29 29 29 26 25 23 23 17 14 12 16 12 16 17 15 13 13 13 13 12 10 10 8 8 7 7 7 7 8 11 12 12 13 12 8 11 11
42 41 38 35 33 31 29 29 29 29 26 23 20 16 12 14 16 14 13 18 16 16 16 16 16 14 14 12 11 11 10 10 10 10 10 12 12 9 9 6 6 8 10
47 45 42 40 37 33 32 31 31 29 27 25 22 19 16 15 14 15 12 16 16 16 16 17 17 16 16 16 14 13 11 10 9 10 13 13 12 8 6 7 9 10 11
48 48 45 42 40 38 37 36 34 31 30 27 24 21 20 17 17 16 15 15 14 14 17 17 18 17 17 15 13 12 10 9 7 8 11 12 10 8 6 6 7 8 10
51 51 49 47 46 42 40 37 35 34 32 29 26 22 21 19 18 17 15 15 14 14 15 17 16 17 16 15 13 11 10 8 8 8 8 9 8 8 8 7 7 8 9
43 50 52 49 44 41 41 39 39 36 34 31 27 24 22 20 19 18 17 16 16 15 14 17 20 17 17 15 13 11 9 9 8 6 6 6 7 8 8 9 10 10 10
45 51 38 42 41 42 43 37 36 36 34 31 28 27 24 22 21 19 17 16 15 16 16 16 18 18 18 16 13 11 9 8 7 6 7 7 7 8 9 10 10 10 10
39 38 41 31 29 26 28 32 30 31 34 32 31 28 26 24 23 21 18 16 15 15 15 15 17 19 18 17 15 12 10 8 8 7 6 7 8 9 9 9 9 10 10
30 30 32 30 30 31 32 33 33 34 36 33 32 28 25 25 25 24 23 21 18 16 15 14 16 20 19 18 15 12 11 10 10 7 7 8 8 8 8 9 10 10 11
30 34 32 33 31 34 33 36 40 38 36 35 34 31 27 25 24 23 21 19 18 17 16 16 17 17 19 18 16 13 12 10 10 8 8 8 8 9 10 11 11 12 13
33 32 33 33 30 31 33 34 35 36 38 38 35 31 28 25 22 21 19 18 17 17 17 17 17 19 20 19 17 15 13 11 10 9 9 9 9 10 11 12 13 14 16
31 30 31 30 29 33 33 34 33 34 36 36 36 35 33 29 23 20 18 16 13 12 15 17 18 18 18 18 16 14 13 11 9 10 10 11 10 12 13 14 15 15 15
30 30 30 30 30 29 31 32 33 34 35 35 35 35 33 31 30 26 21 16 15 15 13 12 14 16 16 16 15 13 12 11 11 10 10 11 12 13 15 16 14 15 16
28 27 27 27 27 28 30 31 31 32 33 33 33 31 32 32 28 26 25 19 17 17 16 16 15 13 14 14 13 13 12 11 10 11 12 11 15 13 14 14 14 16 15
28 26 25 25 25 26 28 28 28 32 34 34 32 28 25 26 26 23 18 18 18 17 17 14 13 13 13 13 12 11 11 10 11 12 13 14 15 14 14 13 13 13 10
24 24 24 22 23 25 24 25 27 29 29 27 27 27 26 24 20 19 16 15 16 16 15 15 14 13 13 13 12 11 10 11 12 12 14 11 12 13 9 12 9 9 16
Wind_Direction
173 166 157 157 156 153 151 147 144 141 137 135 132 130 129 129 131 131 127 121 127 146 146 142 140 137 137 140 129 119 116 115 110 103 99 92 88 84 79 73 65 59 52
168 162 161 161 161 160 157 156 152 148 141 138 131 127 122 119 120 126 126 126 138 148 141 155 147 148 147 137 134 127 122 114 107 104 99 96 92 90 86 82 77 75 69
165 165 164 165 165 163 163 159 152 147 142 138 135 128 124 115 113 107 102 100 113 102 158 162 149 145 147 141 132 127 123 115 113 103 94 91 83 80 68 66 65 59 56
169 168 167 167 166 165 162 156 153 150 149 147 142 134 130 128 122 114 106 100 95 75 92 109 81 129 111 121 131 127 117 109 109 104 98 90 84 66 47 34 27 10 27
172 172 171 170 168 167 164 161 159 161 156 151 145 139 137 130 126 121 114 106 94 87 100 116 119 109 108 109 108 105 103 106 108 102 79 66 44 32 6 334 333 337 348
176 176 173 172 170 169 167 168 169 166 163 158 149 143 137 140 138 135 130 120 116 113 112 103 96 105 107 102 100 98 100 107 109 99 66 11 336 330 327 315 308 303 311
180 178 176 175 174 175 176 178 178 174 166 164 163 147 145 149 153 148 144 141 138 132 130 127 117 132 129 126 117 117 98 34 333 327 336 348 352 357 359 354 343 319 308
184 183 182 181 181 183 186 186 186 180 179 168 159 153 145 154 163 167 161 155 155 155 155 157 151 141 141 147 151 146 57 1 354 356 0 9 4 359 360 2 360 353 334
190 189 189 191 191 192 193 192 192 198 188 178 169 162 153 179 179 182 177 174 170 172 170 166 175 170 165 157 162 170 325 322 337 351 12 17 7 359 357 356 357 352 347
194 194 195 197 199 198 199 198 198 203 199 192 182 182 185 193 175 181 191 184 181 180 180 179 182 190 201 217 213 218 266 297 302 326 11 4 354 344 338 338 10 356 353
198 198 198 199 201 203 204 205 204 204 204 206 201 201 194 195 199 188 189 193 192 193 197 194 194 202 202 210 216 248 262 279 286 294 328 339 340 335 332 346 24 3 21
203 201 203 203 203 205 207 207 207 208 209 212 215 220 221 201 206 205 191 193 202 201 201 202 206 206 206 213 224 243 265 282 290 290 314 330 333 332 322 352 7 354 7
206 204 204 204 203 204 209 208 209 211 211 214 219 229 230 228 228 223 217 202 200 202 205 209 210 214 217 226 238 251 261 269 280 297 313 322 331 329 318 310 322 333 346
211 209 206 207 206 208 209 210 210 211 212 214 218 225 232 235 231 228 232 225 205 206 210 214 214 216 221 228 232 239 250 258 272 296 309 321 327 327 325 327 327 334 333
210 212 211 208 210 212 212 211 212 213 213 216 221 225 231 234 232 228 227 224 226 212 213 220 219 221 222 224 227 230 241 252 270 289 301 312 320 328 331 331 331 329 330
213 219 216 213 211 213 214 213 214 214 215 217 221 225 227 229 228 227 226 226 227 232 225 228 226 226 223 222 224 227 239 258 268 277 291 299 307 311 317 322 326 329 331
227 224 221 230 216 215 212 210 215 216 216 216 220 224 226 224 223 223 222 224 225 228 231 227 227 222 217 217 220 225 233 244 259 262 275 287 296 305 312 318 321 324 326
219 224 225 217 213 229 223 213 215 222 223 221 223 222 225 222 218 214 212 217 221 226 231 231 224 215 214 214 218 222 225 230 243 252 268 285 292 297 302 307 311 316 319
218 223 217 218 217 220 221 225 240 233 229 224 224 226 224 223 219 217 209 209 217 222 229 233 224 215 216 215 216 218 218 221 236 250 268 276 285 293 301 305 309 313 315
216 217 215 214 219 222 226 230 238 226 222 224 224 218 217 217 217 218 220 220 217 220 224 225 219 215 213 212 209 211 214 222 240 253 261 272 282 289 295 300 305 308 306
212 217 219 221 225 221 225 230 229 231 231 224 215 215 211 211 212 214 217 221 227 224 218 216 209 206 209 207 207 208 213 228 238 247 259 268 280 290 296 299 301 302 300
211 214 216 221 225 223 226 232 231 230 229 223 217 209 208 205 208 211 207 204 208 223 221 212 209 207 208 204 207 211 217 218 234 248 257 271 282 287 293 295 298 297 296
213 215 218 222 222 222 225 225 225 226 224 219 216 213 208 205 198 198 204 196 207 216 204 222 220 210 210 212 213 211 216 224 235 252 262 275 282 288 293 295 296 295 294
212 214 216 216 217 217 221 223 221 217 213 210 209 210 209 214 215 224 215 197 204 213 211 205 196 205 203 206 205 212 221 232 246 259 270 280 285 287 288 288 291 287 294
206 208 211 211 208 211 214 219 218 211 209 210 211 211 215 218 209 195 187 195 201 202 196 195 194 196 200 205 210 220 227 239 257 269 275 280 283 284 290 291 286 286 284
199 196 196 197 200 202 204 207 209 206 203 203 203 205 202 199 190 186 179 185 196 197 195 194 195 199 204 210 216 228 240 251 262 275 276 272 277 288 298 291 277 277 286
Height
1568 1572 1576 1579 1582 1585 1587 1590 1591 1593 1595 1597 1598 1600 1602 1602 1605 1606 1606 1607 1606 1605 1606 1607 1608 1609 1610 1611 1612 1612 1612 1613 1614 1615 1616 1616 1616 1616 1617 1617 1617 1617 1616
1569 1572 1576 1580 1583 1586 1588 1591 1593 1595 1597 1599 1600 1603 1604 1604 1607 1608 1607 1607 1608 1608 1608 1608 1609 1610 1610 1612 1613 1614 1615 1616 1617 1618 1618 1619 1618 1619 1619 1620 1619 1619 1618
1570 1573 1576 1579 1583 1586 1589 1591 1594 1597 1598 1600 1603 1605 1606 1607 1608 1609 1609 1609 1610 1609 1608 1608 1610 1611 1612 1613 1615 1616 1617 1618 1619 1621 1622 1622 1621 1622 1621 1622 1622 1621 1620
1569 1572 1576 1579 1582 1586 1590 1592 1595 1597 1600 1602 1604 1606 1608 1609 1611 1611 1612 1612 1612 1610 1610 1605 1609 1612 1614 1614 1614 1616 1619 1621 1622 1622 1623 1624 1624 1624 1624 1624 1624 1623 1622
1568 1572 1575 1579 1582 1586 1589 1592 1595 1599 1600 1603 1605 1608 1610 1611 1612 1613 1614 1614 1616 1614 1614 1614 1613 1614 1617 1619 1618 1621 1622 1623 1625 1625 1625 1626 1626 1625 1625 1625 1624 1623 1622
1567 1570 1574 1579 1582 1585 1589 1592 1596 1598 1601 1603 1605 1608 1610 1612 1614 1615 1616 1616 1619 1618 1620 1619 1618 1618 1619 1622 1622 1623 1624 1625 1626 1626 1627 1627 1626 1626 1624 1624 1623 1622 1621
1565 1570 1573 1578 1582 1585 1589 1592 1595 1598 1600 1603 1605 1609 1611 1614 1615 1615 1616 1618 1620 1621 1622 1621 1621 1622 1622 1623 1624 1625 1626 1627 1627 1627 1627 1626 1625 1624 1623 1622 1622 1621 1620
1564 1568 1572 1576 1580 1583 1587 1590 1594 1595 1599 1601 1604 1608 1612 1616 1616 1617 1618 1619 1620 1621 1622 1622 1622 1622 1623 1624 1625 1625 1626 1626 1625 1624 1624 1624 1623 1622 1621 1621 1620 1619 1618
1562 1566 1570 1574 1578 1582 1585 1589 1592 1595 1597 1600 1602 1606 1610 1613 1615 1617 1618 1618 1620 1621 1622 1622 1623 1623 1623 1624 1625 1626 1626 1626 1625 1625 1625 1625 1624 1622 1621 1620 1618 1618 1617
1558 1563 1568 1572 1576 1580 1583 1587 1590 1593 1597 1598 1601 1603 1605 1607 1610 1615 1617 1618 1619 1620 1621 1621 1622 1623 1624 1624 1625 1626 1626 1626 1626 1625 1625 1625 1624 1624 1622 1620 1619 1617 1616
1554 1559 1563 1568 1572 1576 1580 1584 1588 1591 1594 1598 1600 1602 1603 1605 1607 1608 1611 1615 1617 1618 1619 1620 1621 1622 1623 1623 1624 1624 1625 1625 1625 1625 1625 1624 1624 1623 1621 1620 1619 1616 1615
1550 1554 1559 1564 1568 1572 1577 1581 1586 1589 1592 1596 1598 1600 1602 1603 1604 1606 1608 1611 1614 1615 1616 1618 1619 1620 1621 1622 1622 1622 1622 1623 1623 1623 1623 1623 1623 1622 1620 1619 1617 1616 1615
1543 1548 1553 1558 1563 1567 1573 1577 1581 1585 1589 1593 1596 1598 1600 1601 1603 1605 1606 1607 1609 1612 1613 1615 1616 1617 1619 1619 1619 1620 1621 1621 1621 1621 1621 1621 1621 1620 1619 1617 1616 1615 1614
1539 1544 1548 1554 1558 1562 1567 1571 1576 1580 1584 1588 1591 1594 1596 1599 1601 1602 1604 1605 1607 1608 1610 1611 1613 1615 1616 1617 1618 1618 1619 1619 1619 1619 1619 1618 1618 1617 1617 1616 1615 1614 1613
1531 1538 1542 1546 1551 1557 1562 1567 1571 1575 1579 1583 1587 1590 1593 1595 1597 1599 1600 1602 1604 1605 1607 1608 1610 1611 1613 1614 1615 1616 1616 1617 1617 1617 1617 1617 1616 1615 1615 1614 1613 1612 1611
1525 1532 1536 1540 1546 1551 1557 1561 1565 1569 1574 1577 1582 1586 1588 1590 1593 1596 1597 1598 1600 1603 1603 1605 1605 1607 1609 1611 1613 1614 1614 1614 1615 1615 1615 1615 1615 1614 1613 1613 1612 1611 1610
1525 1525 1529 1532 1538 1545 1550 1554 1562 1565 1569 1573 1577 1581 1584 1586 1589 1592 1594 1596 1597 1599 1600 1601 1603 1604 1606 1608 1610 1611 1612 1612 1613 1612 1613 1613 1614 1613 1613 1611 1610 1609 1608
1519 1526 1527 1536 1541 1542 1546 1552 1554 1561 1565 1568 1572 1577 1579 1582 1585 1588 1590 1593 1595 1596 1597 1598 1599 1601 1603 1605 1607 1609 1610 1610 1611 1611 1612 1611 1612 1611 1611 1610 1609 1608 1607
1515 1520 1524 1529 1535 1537 1544 1549 1550 1557 1560 1562 1566 1572 1574 1578 1581 1583 1585 1588 1590 1592 1593 1594 1595 1597 1598 1601 1604 1606 1607 1609 1609 1610 1610 1610 1610 1609 1609 1608 1607 1606 1604
1510 1515 1519 1525 1530 1534 1536 1541 1546 1551 1554 1556 1561 1565 1568 1573 1576 1579 1582 1585 1586 1587 1589 1590 1591 1593 1596 1598 1600 1603 1605 1606 1607 1608 1607 1608 1607 1607 1606 1606 1605 1604 1601
1504 1511 1515 1518 1523 1526 1531 1535 1540 1544 1548 1550 1554 1559 1563 1568 1571 1575 1578 1580 1583 1585 1585 1587 1588 1590 1592 1595 1597 1600 1602 1603 1605 1606 1606 1606 1605 1604 1603 1602 1602 1600 1598
1499 1504 1509 1513 1516 1520 1525 1529 1533 1537 1542 1546 1549 1552 1557 1560 1566 1572 1574 1575 1578 1582 1582 1584 1585 1586 1591 1593 1595 1598 1599 1600 1601 1603 1604 1603 1603 1601 1601 1599 1598 1596 1594
1494 1498 1503 1507 1511 1516 1520 1524 1528 1531 1537 1540 1545 1549 1551 1555 1558 1564 1566 1570 1575 1579 1580 1583 1584 1585 1587 1591 1593 1595 1597 1597 1598 1599 1600 1599 1599 1598 1597 1595 1593 1592 1590
1489 1493 1497 1501 1505 1510 1515 1519 1524 1528 1532 1537 1543 1546 1548 1552 1557 1560 1563 1566 1571 1575 1577 1579 1580 1583 1586 1589 1591 1594 1594 1595 1595 1597 1597 1596 1595 1594 1593 1592 1590 1588 1587
1483 1488 1493 1497 1501 1506 1511 1515 1521 1525 1530 1534 1538 1544 1548 1551 1554 1556 1559 1565 1569 1572 1575 1577 1579 1582 1584 1587 1588 1591 1592 1592 1592 1593 1592 1591 1590 1590 1590 1588 1585 1584 1584
1481 1484 1490 1495 1500 1504 1508 1513 1518 1523 1528 1532 1539 1542 1545 1548 1552 1555 1558 1563 1567 1571 1572 1575 1577 1580 1583 1584 1584 1587 1589 1589 1589 1589 1588 1589 1587 1587 1586 1584 1583 1582 1580